| time (UTC) | temp F | wind direction | speed knots | gust knots | rain 1hr in | rain 24hr in | rain mn in | humidity % | barometer mb |
| 20260507113123 | 48 | 5 | 0.9 | 5.2 | 0.00 | 0.00 | 0.00 | 83 | 1020.5 |
| 20260507111553 | 48 | 30 | 1.7 | 6.1 | 0.00 | 0.00 | 0.00 | 83 | 1020.5 |
| 20260507110055 | 49 | 340 | 2.6 | 8.7 | 0.00 | 0.00 | 0.00 | 82 | 1020.6 |
| 20260507104602 | 49 | 340 | 2.6 | 7.8 | 0.00 | 0.00 | 0.00 | 83 | 1020.6 |
| 20260507103053 | 49 | 30 | 1.7 | 3.5 | 0.00 | 0.00 | 0.00 | 83 | 1020.7 |
| 20260507101556 | 49 | 352 | 2.6 | 7.0 | 0.00 | 0.00 | 0.00 | 83 | 1020.8 |
| 20260507100056 | 49 | 352 | 2.6 | 5.2 | 0.00 | 0.00 | 0.00 | 83 | 1020.9 |
| 20260507094557 | 50 | 5 | 1.7 | 5.2 | 0.00 | 0.00 | 0.00 | 82 | 1020.9 |
| 20260507093050 | 50 | 342 | 1.7 | 4.3 | 0.00 | 0.00 | 0.00 | 83 | 1021.1 |
| 20260507091552 | 50 | 345 | 1.7 | 4.3 | 0.00 | 0.00 | 0.00 | 83 | 1021.3 |
| 20260507090051 | 50 | 344 | 1.7 | 4.3 | 0.00 | 0.00 | 0.00 | 83 | 1021.3 |
| 20260507084558 | 50 | 352 | 1.7 | 5.2 | 0.00 | 0.00 | 0.00 | 83 | 1021.3 |
| 20260507083047 | 50 | 349 | 2.6 | 7.0 | 0.00 | 0.00 | 0.00 | 83 | 1021.3 |
| 20260507081551 | 50 | 316 | 0.9 | 2.6 | 0.00 | 0.00 | 0.00 | 84 | 1021.4 |
| 20260507080054 | 50 | 341 | 0.9 | 4.3 | 0.00 | 0.00 | 0.00 | 84 | 1021.3 |
| 20260507074552 | 50 | 351 | 1.7 | 4.3 | 0.00 | 0.00 | 0.00 | 84 | 1021.3 |
| 20260507073056 | 51 | 38 | 0.9 | 3.5 | 0.00 | 0.00 | 0.00 | 84 | 1021.3 |
| 20260507071551 | 51 | 352 | 0.9 | 2.6 | 0.00 | 0.00 | 0.00 | 84 | 1021.3 |
| 20260507070103 | 51 | 352 | 2.6 | 4.3 | 0.00 | 0.00 | 0.00 | 84 | 1021.2 |
| 20260507064550 | 51 | 350 | 2.6 | 8.7 | 0.00 | 0.00 | 0.00 | 84 | 1021.3 |
| 20260507063055 | 51 | 352 | 2.6 | 8.7 | 0.00 | 0.00 | 0.00 | 84 | 1021.2 |
| 20260507061551 | 51 | 341 | 6.1 | 11.3 | 0.00 | 0.00 | 0.00 | 83 | 1021.2 |
| 20260507060051 | 51 | 342 | 5.2 | 11.3 | 0.00 | 0.00 | 0.00 | 84 | 1021.3 |
| 20260507054555 | 51 | 345 | 4.3 | 9.6 | 0.00 | 0.00 | 0.00 | 84 | 1021.3 |
| 20260507053052 | 51 | 352 | 4.3 | 12.2 | 0.00 | 0.00 | 0.00 | 83 | 1021.3 |
| 20260507051549 | 52 | 5 | 6.1 | 11.3 | 0.00 | 0.00 | 0.00 | 83 | 1021.1 |
| 20260507050109 | 52 | 336 | 6.1 | 12.2 | 0.00 | 0.00 | 0.00 | 82 | 1021.2 |
| 20260507044554 | 52 | 360 | 6.1 | 13.0 | 0.00 | 0.00 | 0.00 | 82 | 1021.3 |
| 20260507043054 | 53 | 340 | 6.1 | 13.9 | 0.00 | 0.00 | 0.00 | 81 | 1021.0 |
| 20260507041551 | 53 | 352 | 7.0 | 13.0 | 0.00 | 0.00 | 0.00 | 81 | 1020.9 |
| 20260507040053 | 54 | 342 | 5.2 | 10.4 | 0.00 | 0.00 | 0.00 | 81 | 1020.8 |
| 20260507034550 | 54 | 352 | 5.2 | 10.4 | 0.00 | 0.00 | 0.00 | 81 | 1020.6 |
| 20260507033051 | 55 | 345 | 6.1 | 12.2 | 0.00 | 0.00 | 0.00 | 81 | 1020.6 |
| 20260507031553 | 55 | 345 | 4.3 | 8.7 | 0.00 | 0.00 | 0.00 | 81 | 1020.4 |
| 20260507030054 | 55 | 347 | 4.3 | 8.7 | 0.00 | 0.00 | 0.00 | 81 | 1020.2 |
| 20260507024550 | 56 | 34 | 3.5 | 8.7 | 0.00 | 0.00 | 0.00 | 80 | 1020.0 |
| 20260507023051 | 57 | 343 | 2.6 | 7.8 | 0.00 | 0.00 | 0.00 | 80 | 1020.1 |
| 20260507021559 | 57 | 352 | 3.5 | 7.8 | 0.00 | 0.00 | 0.00 | 79 | 1020.0 |
| 20260507020056 | 58 | 339 | 4.3 | 10.4 | 0.00 | 0.00 | 0.00 | 77 | 1020.1 |
| 20260507014556 | 59 | 5 | 4.3 | 10.4 | 0.00 | 0.00 | 0.00 | 76 | 1020.3 |
| 20260507013057 | 60 | 329 | 4.3 | 9.6 | 0.00 | 0.00 | 0.00 | 76 | 1020.3 |
| 20260507011556 | 60 | 15 | 3.5 | 7.0 | 0.00 | 0.00 | 0.00 | 75 | 1020.2 |
| 20260507010054 | 61 | 340 | 3.5 | 9.6 | 0.00 | 0.00 | 0.00 | 76 | 1020.3 |
| 20260507004550 | 62 | 352 | 3.5 | 7.8 | 0.00 | 0.00 | 0.00 | 76 | 1020.3 |
| 20260507003055 | 62 | 360 | 4.3 | 7.8 | 0.00 | 0.00 | 0.00 | 74 | 1020.2 |
| 20260507001551 | 63 | 9 | 2.6 | 6.1 | 0.00 | 0.00 | 0.00 | 73 | 1020.3 |
| 20260507000054 | 63 | 32 | 2.6 | 4.3 | 0.00 | 0.00 | 0.00 | 72 | 1020.3 |
| 20260506234607 | 64 | 40 | 0.9 | 2.6 | 0.00 | 0.00 | 0.00 | 70 | 1020.2 |
| 20260506233052 | 64 | 48 | 0.9 | 1.7 | 0.00 | 0.00 | 0.00 | 71 | 1020.3 |
| 20260506231557 | 63 | 0 | 0.9 | 4.3 | 0.00 | 0.00 | 0.00 | 73 | 1020.3 |
| 20260506230057 | 64 | 162 | 1.7 | 3.5 | 0.00 | 0.00 | 0.00 | 68 | 1020.6 |
| 20260506224550 | 63 | 270 | 0.9 | 4.3 | 0.00 | 0.00 | 0.00 | 69 | 1020.6 |
| 20260506223058 | 64 | 360 | 0.9 | 3.5 | 0.00 | 0.00 | 0.00 | 71 | 1020.7 |
| 20260506221551 | 62 | 49 | 0.9 | 2.6 | 0.00 | 0.00 | 0.00 | 76 | 1020.7 |
| 20260506220049 | 61 | 23 | 0.9 | 4.3 | 0.00 | 0.00 | 0.00 | 76 | 1020.7 |
| 20260506214549 | 61 | 24 | 0.9 | 2.6 | 0.00 | 0.00 | 0.00 | 78 | 1020.5 |
| 20260506213050 | 60 | 52 | 2.6 | 4.3 | 0.00 | 0.00 | 0.00 | 78 | 1020.7 |
| 20260506211549 | 61 | 230 | 0.9 | 3.5 | 0.00 | 0.00 | 0.00 | 76 | 1021.0 |
| 20260506210046 | 61 | 278 | 2.6 | 5.2 | 0.00 | 0.00 | 0.00 | 76 | 1021.0 |
| 20260506204554 | 59 | 163 | 0.9 | 5.2 | 0.00 | 0.00 | 0.00 | 80 | 1020.9 |
| 20260506203047 | 60 | 178 | 2.6 | 6.1 | 0.00 | 0.00 | 0.00 | 81 | 1021.0 |
| 20260506201547 | 59 | 162 | 1.7 | 5.2 | 0.00 | 0.00 | 0.00 | 81 | 1021.0 |
| 20260506200107 | 58 | 221 | 0.0 | 2.6 | 0.00 | 0.00 | 0.00 | 81 | 1021.2 |
| 20260506194606 | 58 | 0 | 0.0 | 2.6 | 0.00 | 0.00 | 0.00 | 82 | 1021.3 |
| 20260506193047 | 58 | 210 | 1.7 | 4.3 | 0.00 | 0.00 | 0.00 | 81 | 1021.5 |
| 20260506191547 | 58 | 187 | 1.7 | 6.1 | 0.00 | 0.00 | 0.00 | 83 | 1021.1 |
| 20260506190053 | 57 | 281 | 1.7 | 3.5 | 0.00 | 0.00 | 0.00 | 83 | 1021.2 |
| 20260506184548 | 57 | 182 | 3.5 | 7.0 | 0.00 | 0.00 | 0.00 | 84 | 1021.1 |
| 20260506183104 | 56 | 227 | 0.9 | 2.6 | 0.00 | 0.00 | 0.00 | 85 | 1021.1 |
| 20260506181557 | 56 | 352 | 0.0 | 1.7 | 0.00 | 0.00 | 0.00 | 86 | 1021.1 |
| 20260506180051 | 55 | 188 | 0.9 | 1.7 | 0.00 | 0.00 | 0.00 | 86 | 1021.1 |
| 20260506174547 | 55 | 179 | 0.0 | 2.6 | 0.00 | 0.00 | 0.00 | 86 | 1021.0 |
| 20260506173059 | 54 | 115 | 0.0 | 2.6 | 0.00 | 0.00 | 0.00 | 87 | 1020.8 |
| 20260506171554 | 54 | 214 | 0.0 | 1.7 | 0.00 | 0.00 | 0.00 | 86 | 1020.7 |
| 20260506170053 | 55 | 305 | 0.0 | 1.7 | 0.00 | 0.00 | 0.00 | 87 | 1020.8 |
| 20260506164555 | 55 | 42 | 0.9 | 2.6 | 0.00 | 0.00 | 0.00 | 86 | 1020.8 |
| 20260506163055 | 55 | 217 | 0.9 | 2.6 | 0.00 | 0.00 | 0.00 | 86 | 1020.6 |
| 20260506161603 | 54 | 194 | 0.9 | 5.2 | 0.00 | 0.00 | 0.00 | 87 | 1020.5 |
| 20260506160055 | 53 | 0 | 0.0 | 3.5 | 0.00 | 0.00 | 0.00 | 87 | 1020.2 |
| 20260506154555 | 53 | 137 | 1.7 | 3.5 | 0.00 | 0.00 | 0.00 | 88 | 1019.8 |
| 20260506153051 | 52 | 333 | 0.9 | 2.6 | 0.00 | 0.00 | 0.00 | 89 | 1020.6 |
| 20260506151605 | 52 | 349 | 1.7 | 4.3 | 0.00 | 0.00 | 0.00 | 89 | 1020.8 |
| 20260506150051 | 53 | 11 | 1.7 | 5.2 | 0.00 | 0.00 | 0.00 | 89 | 1020.7 |
| 20260506144552 | 53 | 342 | 1.7 | 4.3 | 0.00 | 0.00 | 0.00 | 89 | 1020.5 |
| 20260506143054 | 53 | 360 | 1.7 | 2.6 | 0.00 | 0.00 | 0.00 | 89 | 1020.1 |
| 20260506141553 | 53 | 50 | 0.9 | 2.6 | 0.00 | 0.00 | 0.00 | 89 | 1019.8 |
| 20260506140106 | 53 | 30 | 0.0 | 0.9 | 0.00 | 0.00 | 0.00 | 89 | 1020.0 |
| 20260506134553 | 53 | 25 | 0.9 | 1.7 | 0.00 | 0.00 | 0.00 | 88 | 1019.9 |
| 20260506133057 | 53 | 190 | 0.0 | 1.7 | 0.00 | 0.00 | 0.00 | 88 | 1019.6 |
| 20260506131555 | 53 | 190 | 0.9 | 1.7 | 0.00 | 0.00 | 0.00 | 88 | 1019.5 |
| 20260506130105 | 52 | 5 | 0.9 | 1.7 | 0.00 | 0.00 | 0.00 | 89 | 1019.4 |
| 20260506124553 | 52 | 0 | 0.0 | 3.5 | 0.00 | 0.00 | 0.00 | 89 | 1019.3 |
| 20260506123052 | 52 | 350 | 2.6 | 5.2 | 0.00 | 0.00 | 0.00 | 89 | 1019.3 |
| 20260506121550 | 52 | 360 | 2.6 | 6.1 | 0.00 | 0.00 | 0.00 | 89 | 1019.4 |
| 20260506120053 | 52 | 352 | 2.6 | 7.0 | 0.00 | 0.00 | 0.00 | 88 | 1019.3 |
| 20260506114550 | 52 | 9 | 2.6 | 7.0 | 0.00 | 0.00 | 0.00 | 88 | 1019.0 |